Regional Weather Roundup
Issued by NWS

Home | Current Version | Previous Version | Graphics & Text | Print | Product List | Glossary On
Versions: 1 2 3 4 5 6 7 8 9 10 11 12 13 14 15 16 17 18 19 20 21 22 23 24 25 26 27 28 29 30 31 32 33 34 35 36 37 38 39 40 41 42 43 44 45 46 47 48 49 50
000
ASUS43 KLOT 190503
RWRIL

ILLINOIS REGIONAL WEATHER ROUNDUP
NATIONAL WEATHER SERVICE CHICAGO/ROMEOVILLE IL
1100 PM CST SAT NOV 18 2017

NOTE: "FAIR" INDICATES FEW OR NO CLOUDS BELOW 12,000 FEET WITH NO
SIGNIFICANT WEATHER AND/OR OBSTRUCTIONS TO VISIBILITY.

* THESE STATIONS ARE NOT UNDER NWS QUALITY CONTROL. THEY ALSO MAY NOT
  REPORT WEATHER SUCH AS PRECIPITATION OR FOG.

ILZ001-002-007-009-015-016-024-190600-
NORTHWEST ILLINOIS

CITY           SKY/WX    TMP DP  RH WIND       PRES   REMARKS
MOLINE         MOCLDY    32  23  69 W14G26    29.98R WCI  22
STERLING*      CLOUDY    34  28  79 W13       29.92R WCI  25
SAVANNA*       CLOUDY    33  23  67 NW16G23   29.92R WCI  23
$$

ILZ003-004-008-010-011-017-018-190600-
NORTH CENTRAL ILLINOIS

CITY           SKY/WX    TMP DP  RH WIND       PRES   REMARKS
ROCKFORD       CLOUDY    35  26  69 N16G24    29.89R WCI  25
FREEPORT*      CLOUDY    33  27  77 NW14      29.90R WCI  23
ROCHELLE*      CLOUDY    34  29  82 NW15      29.87R WCI  24
DE KALB*       CLOUDY    34  30  85 NW15G21   29.86R WCI  25
PERU*          MOCLDY    32  28  83 NW16      29.91R WCI  22
$$

ILZ005-006-012>014-019>023-190600-
NORTHEAST ILLINOIS

CITY           SKY/WX    TMP DP  RH WIND       PRES   REMARKS
CHICAGO-OHARE  CLOUDY    38  29  70 NW13      29.82R WCI  30
CHICAGO-MIDWAY CLOUDY    39  29  67 NW14      29.83R WCI  31
AURORA         CLOUDY    36  31  82 W17       29.85R WCI  26
LANSING*       CLOUDY    38  30  73 NW8G17    29.83R WCI  32
JOLIET*        CLOUDY    38  33  81 W5        29.86R WCI  35
WAUKEGAN       CLOUDY    37  29  72 NW8       29.80R WCI  31
DUPAGE AIRPORT CLOUDY    36  31  82 NW10      29.83R WCI  28
KANKAKEE*      CLOUDY    38  32  81 NW13G18   29.86R WCI  30
WHEELING       CLOUDY    38  29  70 NW14      29.83R WCI  30
MORRIS*        CLOUDY    37  32  82 NW17G25   29.86R WCI  27
ROMEOVILLE*    CLOUDY    36  32  85 NW12      29.84R WCI  28
NORTHERLY ISL    N/A     39  29  67 NW10        N/A  WCI  32
$$

LMZ740>746-190600-
SOUTHERN LAKE MICHIGAN

STATION/POSITION SKY/WX   TEMP    WIND        PRES    VSBY  WAVE
                          AIR SEA DIR/SP/G                  HT/PER
                          (F)     (DEG/KT/KT) (MB)    (MI)  (FT/S)
SOUTHERN BUOY              40 49  340/ 23/ 29 1006.7         10/ 8
HARRISON CRIB              40     340/ 24/ 26   N/A
BURNHAM HARBOR             39     280/  6/ 16   N/A
BURNS HARBOR               41     330/ 19/ 27 1009.1R
MICHIGAN CITY              40     310/ 29/ 36   N/A
$$

ILZ025>027-034>036-040-047-049-050-058-095>099-190600-
WEST-CENTRAL ILLINOIS

CITY           SKY/WX    TMP DP  RH WIND       PRES   REMARKS
QUINCY         CLEAR     34  21  59 NW21G28   30.05R WCI  22
GALESBURG*     CLOUDY    32  27  81 W17G25    29.99R WCI  21
MACOMB*        PTCLDY    32  26  78 NW16G26   30.03S WCI  21
JACKSONVILLE*  CLOUDY    34  26  74 NW23G32   30.02R WCI  22
PITTSFIELD*    CLEAR     35  26  70 NW16G24   30.05R WCI  25
$$

ILZ028>032-037-038-041>044-048-051>054-059>061-190600-
CENTRAL ILLINOIS

CITY           SKY/WX    TMP DP  RH WIND       PRES   REMARKS
PONTIAC        PTCLDY    35  33  93 W20G28    29.90R WCI  24
BLOOMINGTON    CLOUDY    33  28  81 NW21      29.92R WCI  21
DECATUR        CLOUDY    36  30  79 NW16G29   29.95R WCI  26
PEORIA         CLEAR     33  26  75 NW12G24   29.96R WCI  24
LACON*         CLEAR     33  28  83 NW12G18   29.93R WCI  24
LINCOLN*       CLOUDY    35  30  82 NW12G22   29.97R WCI  27
SPRINGFIELD    PTCLDY    36  28  73 NW14G29   29.99R WCI  27
TAYLORVILLE    PTCLDY    35  29  78 NW26G32   29.98R WCI  23
$$

ILZ033-039-045-046-055>057-062-063-190600-
EAST-CENTRAL ILLINOIS

CITY           SKY/WX    TMP DP  RH WIND       PRES   REMARKS
CHAMPAIGN      PTCLDY    36  32  85 NW15      29.90R WCI  27
DANVILLE*      CLOUDY    37  33  86 W14       29.83R WCI  28
RANTOUL*       CLOUDY    38  33  83 NW20G30   29.88R WCI  28
MATTOON        CLEAR     36  33  89 NW18      29.91R WCI  26
PARIS*         CLOUDY    38  35  90 W13       29.90R WCI  30
$$

ILZ079-100>102-190600-
SOUTHWEST ILLINOIS

CITY           SKY/WX    TMP DP  RH WIND       PRES   REMARKS
ALTON          PTCLDY    38  32  78 NW10G16   30.02R WCI  31
BELLEVILLE     CLEAR     39  31  73 NW13      30.01R WCI  32
CAHOKIA*       PTCLDY    41  30  65 NW14G26   30.03R
SPARTA*        CLEAR     40  32  73 NW9G16    30.02R
$$

ILZ064>066-069>071-074>076-080>082-084>086-088>090-092>094-190600-
SOUTH-CENTRAL ILLINOIS

CITY           SKY/WX    TMP DP  RH WIND       PRES   REMARKS
CARBONDALE     CLEAR     41  33  73 NW8       30.01R
CAIRO*         CLEAR     43  33  68 NW7       30.03R
EFFINGHAM*     CLEAR     39  33  80 W14G25    29.96R WCI  31
MARION         CLEAR     42  34  72 NW5       30.01R
MT. VERNON     CLEAR     40  32  73 VRB7      29.98R
CENTRALIA*     CLEAR     40  34  77 NW13      29.98R
SALEM*         CLEAR     40  33  74 NW14G21   29.97R
METROPOLIS*    CLEAR     42  34  71 NW7       30.02R
$$

ILZ067-068-072-073-078-083-087-091-190600-
SOUTHEAST ILLINOIS

CITY           SKY/WX    TMP DP  RH WIND       PRES   REMARKS
LAWRENCEVILLE  CLOUDY    42  35  76 NW13      29.93R
FLORA*         CLEAR     40  34  79 NW12G18   29.84R
FAIRFIELD*     CLEAR     40  34  79 NW5       29.96R
HARRISBURG*    CLEAR     41  34  76 NW12      29.99R
ROBINSON*      CLOUDY    40  35  83 NW13G20   29.93R
CARMI*         CLEAR     39  35  85 NW12      29.97R WCI  32
$$

ABBREVIATIONS USED IN REMARKS
   TC - TEMPERATURE IN CELSIUS
  WCI - WIND CHILL INDEX
   HX - HEAT INDEX
  VSB - VISIBILITY
$$





USA.gov is the U.S. government's official web portal to all federal, state and local government web resources and services.